Preview of NWS' New Version of Forecast
This preview is not operational and should not be used for support decisions.

Regional Weather Roundup (RWR)

Issued by National Weather Service (NWS)

                            
000
ASUS46 KPQR 180710
RWROR 

OREGON REGIONAL WEATHER ROUNDUP
NATIONAL WEATHER SERVICE PORTLAND OR
1100 PM PST SUN FEB 17 2019

NOTE: "FAIR" INDICATES FEW OR NO CLOUDS BELOW 12,000 FEET WITH
NO SIGNIFICANT WEATHER AND/OR OBSTRUCTIONS TO VISIBILITY.

ORZ001>013-180800-
NORTHWEST OREGON

  
CITY           SKY/WX    TMP DP  RH WIND       PRES   REMARKS
ASTORIA        CLEAR     33  32  96 SE6       30.33S                  
TILLAMOOK      PTCLDY    32  30  93 S3        30.36R FOG              
NEWPORT        CLEAR     32  32 100 E6        30.36R                  
PORTLAND       PTCLDY    33  29  85 NW3       30.33S                  
VANCOUVER WA   CLEAR     31  28  89 CALM      30.33R                  
SCAPPOOSE      CLEAR     33  30  88 W3        30.33R                  
HILLSBORO      MOCLDY    30  28  92 CALM      30.32R                  
AURORA         PTCLDY    35  32  88 CALM      30.33S                  
MCMINNVILLE    CLEAR     30  29  96 NW5       30.33R                  
SALEM          PTCLDY    32  29  88 CALM      30.32R                  
CORVALLIS      CLOUDY    35  33  92 W3        30.34R                  
EUGENE         MOCLDY    32  29  88 SW5       30.33R                  
$$

ORZ021-028-180800-
SOUTHWEST OREGON

  
CITY           SKY/WX    TMP DP  RH WIND       PRES   REMARKS
NORTH BEND     NOT AVBL                                               
BROOKINGS      CLEAR     40  28  62 N5        30.27R                  
ROSEBURG       CLEAR     32  30  92 CALM      30.31R                  
SEXTON SUMMIT  CLEAR     23  22  96 N9        30.15R                  
GRANTS PASS    FAIR      28  28 100 CALM      30.30                   
MEDFORD        PTCLDY    35  27  72 CALM      30.25R                  
$$

ORZ014>016-041-180800-
COLUMBIA GORGE

  
CITY           SKY/WX    TMP DP  RH WIND       PRES   REMARKS
TROUTDALE      MOCLDY    37  34  89 CALM      30.32S                  
HOOD RIVER     CLOUDY    34  32  93 NW3       30.30S                  
THE DALLES     CLOUDY    33  32  96 SW3       30.33R                  
$$

ORZ029>031-041-044-049-050-061>064-502-503-505>511-180800-
EASTERN OREGON

  
CITY           SKY/WX    TMP DP  RH WIND       PRES   REMARKS
MADRAS         NOT AVBL                                               
REDMOND        MOCLDY    31  24  75 N6        30.16R                  
BEND           MOCLDY    28  23  80 NW7       30.15S                  
PRINEVILLE     CLOUDY    30  25  80 NW6       30.15S                  
KLAMATH FALLS  CLEAR     23  18  81 NW7       30.11R                  
LAKEVIEW       FLURRIES  18  15  88 NW6       30.07R                  
HERMISTON      CLOUDY    33  27  78 CALM      30.29R                  
PENDLETON      CLOUDY    30  29  96 NW12      30.23R FOG     WCI  20  
JOHN DAY       CLOUDY    28  22  81 CALM      30.11                   
MEACHAM        LGT SNOW  23  20  88 VRB3      30.10R FOG              
LA GRANDE      FLURRIES  28  24  85 NW10      30.15R WCI  19          
BAKER CITY     CLOUDY    27  22  81 NW9       30.08R                  
BURNS          CLOUDY    24  16  71 NW12      30.06R WCI  13          
ROME             N/A     24  20  84 SE5       30.02R                  
ONTARIO        CLEAR     33  22  63 NW15      30.09R WCI  23          
$$